Weather History for KMWA - February, 2013

Change the Weather History Date:

Friday, February 22, 2013

  Actual Average Record
Temperature  
Mean Temperature 36 °F -  
Max Temperature 41 °F 54 °F 73 °F (1983)
Min Temperature 30 °F 29 °F 7 °F (1978)
Degree Days  
Heating Degree Days 30    
Moisture  
Dew Point 31 °F    
Average Humidity 91    
Maximum Humidity 100    
Minimum Humidity 70    
Precipitation  
Precipitation 0.00 in - - ()
Sea Level Pressure  
Sea Level Pressure 29.97 in    
Wind  
Wind Speed 2 mph (SW)    
Max Wind Speed 14 mph    
Max Gust Speed -    
Visibility 8 miles    
Events      
Averages and records for this station are not official NWS values.
T = Trace of Precipitation, MM = Missing Value Source: NWS Daily Summary

Daily Weather History Graph

Daily Weather History Graph

Search for Another Location

Airport or City:

Trip Planner

Search our weather history database for the weather conditions in past years. The results will help you decide how hot, cold, wet, or windy it might be!

Date:

Astronomy

Feb. 22, 2013 Rise Set
Actual Time 6:36 AM CST 5:42 PM CST
Civil Twilight 6:10 AM CST 6:09 PM CST
Nautical Twilight 5:39 AM CST 6:39 PM CST
Astronomical Twilight 5:09 AM CST 7:10 PM CST
Moon 2:56 PM CST (2/22) 4:19 AM CST (2/22)
Length of Visible Light 11h 59m
Length of Day
11h 06m
Waxing Gibbous, 90% of the Moon is Illuminated
Feb 22
Waxing Gibbous
Feb 25
Full
Mar 4
Last Quarter
Mar 11
New
Mar 19
First Quarter

Hourly Weather History & Observations

Time (CST) Temp. Windchill Dew Point Humidity Pressure Visibility Wind Dir Wind Speed Gust Speed Precip Events Conditions
12:15 AM 33.8 °F - 33.8 °F 100% 29.83 in 3.0 mi Calm Calm - N/A   Overcast
12:35 AM 33.8 °F - 33.8 °F 100% 29.84 in 5.0 mi Calm Calm - N/A   Overcast
12:55 AM 33.8 °F 30.8 °F 33.8 °F 100% 29.84 in 3.0 mi SE 3.5 mph - N/A   Overcast
1:15 AM 33.8 °F - 33.8 °F 100% 29.85 in 2.5 mi Calm Calm - N/A   Overcast
1:35 AM 33.8 °F - 33.8 °F 100% 29.85 in 3.0 mi Calm Calm - N/A   Overcast
1:55 AM 33.8 °F - 33.8 °F 100% 29.85 in 2.0 mi Calm Calm - N/A   Overcast
2:15 AM 33.8 °F - 33.8 °F 100% 29.84 in 2.0 mi Calm Calm - N/A   Overcast
2:35 AM 33.8 °F - 33.8 °F 100% 29.84 in 3.0 mi Calm Calm - N/A   Overcast
2:55 AM 33.8 °F - 33.8 °F 100% 29.83 in 1.8 mi Calm Calm - N/A   Overcast
3:15 AM 33.8 °F - 33.8 °F 100% 29.84 in 2.5 mi Calm Calm - N/A   Overcast
3:35 AM 33.8 °F - 33.8 °F 100% 29.84 in 4.0 mi Calm Calm - N/A   Overcast
3:55 AM 35.6 °F 32.8 °F 35.6 °F 100% 29.85 in 4.0 mi WSW 3.5 mph - N/A   Overcast
4:15 AM 33.8 °F 29.6 °F 33.8 °F 100% 29.87 in 4.0 mi SW 4.6 mph - N/A   Overcast
4:35 AM 33.8 °F 29.6 °F 33.8 °F 100% 29.87 in 5.0 mi SW 4.6 mph - N/A   Overcast
4:55 AM 33.8 °F 29.6 °F 33.8 °F 100% 29.89 in 7.0 mi SSW 4.6 mph - N/A   Overcast
5:15 AM 33.8 °F 29.6 °F 33.8 °F 100% 29.90 in 7.0 mi SSW 4.6 mph - N/A   Mostly Cloudy
5:35 AM 33.8 °F 29.6 °F 33.8 °F 100% 29.90 in 10.0 mi SSW 4.6 mph - N/A   Clear
6:54 AM 35.6 °F 30.7 °F 33.8 °F 93% 29.94 in 15.0 mi SW 5.8 mph - N/A   Overcast
7:53 AM 35.6 °F 29.2 °F 33.8 °F 93% 29.95 in 15.0 mi SSW 8.1 mph - N/A   Overcast
8:52 AM 35.6 °F 28.6 °F 33.8 °F 93% 29.98 in 15.0 mi SSW 9.2 mph - N/A   Overcast
10:53 AM 37.4 °F 29.8 °F 35.6 °F 93% 30.01 in 15.0 mi South 11.5 mph - N/A   Overcast
11:53 AM 39.2 °F 32.0 °F 35.6 °F 87% 30.00 in 15.0 mi SSW 11.5 mph - N/A   Overcast
2:55 PM 41.0 °F 33.5 °F 33.8 °F 76% 30.00 in 10.0 mi WSW 13.8 mph - N/A   Mostly Cloudy
3:55 PM 39.2 °F 32.0 °F 30.2 °F 70% 30.00 in 10.0 mi West 11.5 mph - N/A   Mostly Cloudy
5:55 PM 35.6 °F 28.6 °F 28.4 °F 75% 30.04 in 10.0 mi WNW 9.2 mph - N/A   Overcast
7:15 PM 33.8 °F 29.6 °F 28.4 °F 81% 30.06 in 10.0 mi WSW 4.6 mph - N/A   Mostly Cloudy
7:35 PM 33.8 °F 30.8 °F 28.4 °F 81% 30.07 in 10.0 mi West 3.5 mph - N/A   Overcast
7:55 PM 33.8 °F 30.8 °F 28.4 °F 81% 30.07 in 10.0 mi West 3.5 mph - N/A   Overcast
8:15 PM 33.8 °F - 28.4 °F 81% 30.07 in 10.0 mi Calm Calm - N/A   Overcast
8:35 PM 33.8 °F 28.6 °F 26.6 °F 75% 30.08 in 10.0 mi WNW 5.8 mph - N/A   Overcast
8:55 PM 32.0 °F 28.7 °F 26.6 °F 80% 30.08 in 10.0 mi NW 3.5 mph - N/A   Scattered Clouds
9:15 PM 32.0 °F - 26.6 °F 80% 30.09 in 10.0 mi Calm Calm - N/A   Clear
9:35 PM 32.0 °F - 26.6 °F 80% 30.10 in 10.0 mi Calm Calm - N/A   Clear
9:55 PM 32.0 °F - 26.6 °F 80% 30.10 in 10.0 mi Calm Calm - N/A   Clear
10:15 PM 32.0 °F - 28.4 °F 87% 30.10 in 10.0 mi Calm Calm - N/A   Clear
10:35 PM 30.2 °F - 28.4 °F 93% 30.09 in 10.0 mi Calm Calm - N/A   Clear
10:55 PM 30.2 °F - 28.4 °F 93% 30.08 in 10.0 mi Calm Calm - N/A   Clear
11:15 PM 32.0 °F - 26.6 °F 80% 30.09 in 10.0 mi Calm Calm - N/A   Clear
11:35 PM 30.2 °F - 26.6 °F 86% 30.08 in 10.0 mi Calm Calm - N/A   Clear
11:55 PM 30.2 °F - 28.4 °F 93% 30.08 in 10.0 mi Calm Calm - N/A   Clear